CW4797 Weather Reports


time (UTC)temp
C
wind
direction
speed
KPH
gust
KPH
rain 1hr
cm
rain 24hr
cm
rain mn
cm
humidity
%
barometer
mb
20240418161600 11 200 0.0 17.7 0.00 0.00 0.00 47 1022.8
20240418160059 11 209 1.6 12.9 0.00 0.00 0.00 50 1022.8
20240418154552 11 238 0.0 9.7 0.00 0.00 0.00 52 1022.9
20240418153048 11 180 0.0 16.1 0.00 0.00 0.00 50 1023.0
20240418151542 11 261 0.0 6.4 0.00 0.00 0.00 54 1023.1
20240418150037 10 128 0.0 11.3 0.00 0.00 0.00 51 1023.0
20240418144532 10 200 0.0 8.0 0.00 0.00 0.00 52 1023.0
20240418143027 9 163 0.0 12.9 0.00 0.00 0.00 53 1023.1
20240418141523 8 129 0.0 11.3 0.00 0.00 0.00 54 1023.3
20240418140018 8 209 3.2 16.1 0.00 0.00 0.00 57 1023.3
20240418134514 7 55 0.0 11.3 0.00 0.00 0.00 57 1023.2
20240418133012 7 119 0.0 8.0 0.00 0.00 0.00 58 1023.3
20240418131506 6 99 0.0 11.3 0.00 0.00 0.00 60 1023.6
20240418130003 6 90 0.0 4.8 0.00 0.00 0.00 62 1023.6
20240418124557 5 142 0.0 11.3 0.00 0.00 0.00 63 1023.7
20240418123055 5 141 0.0 6.4 0.00 0.00 0.00 65 1023.8
20240418121557 4 123 0.0 1.6 0.00 0.00 0.00 66 1023.8
20240418120045 3 86 0.0 1.6 0.00 0.00 0.00 66 1023.8
20240418114539 3 86 0.0 0.0 0.00 0.00 0.00 66 1023.8
20240418113034 3 86 0.0 0.0 0.00 0.00 0.00 65 1023.7
20240418111535 2 86 0.0 0.0 0.00 0.00 0.00 64 1023.5
20240418110024 2 86 0.0 0.0 0.00 0.00 0.00 60 1023.2
20240418104521 2 83 0.0 0.0 0.00 0.00 0.00 58 1022.9
20240418103030 2 82 0.0 0.0 0.00 0.00 0.00 56 1022.8
20240418101513 2 82 0.0 1.6 0.00 0.00 0.00 55 1022.6
20240418100007 2 86 0.0 1.6 0.00 0.00 0.00 52 1022.5
20240418094502 2 84 0.0 1.6 0.00 0.00 0.00 47 1022.3
20240418093103 2 128 0.0 3.2 0.00 0.00 0.00 44 1022.2
20240418091553 3 82 0.0 0.0 0.00 0.00 0.00 40 1022.4
20240418090108 3 82 0.0 0.0 0.00 0.00 0.00 34 1022.4
20240418084559 3 81 0.0 1.6 0.00 0.00 0.00 28 1022.3
20240418083043 3 113 0.0 1.6 0.00 0.00 0.00 25 1022.3
20240418081538 3 113 0.0 0.0 0.00 0.00 0.00 20 1022.3
20240418080041 3 113 0.0 0.0 0.00 0.00 0.00 13 1022.2
20240418074527 3 113 0.0 0.0 0.00 0.00 0.00 12 1022.3
20240418073024 3 113 0.0 0.0 0.00 0.00 0.00 12 1022.4
20240418071522 3 113 0.0 0.0 0.00 0.00 0.00 15 1022.4
20240418070038 3 113 0.0 0.0 0.00 0.00 0.00 18 1022.5
20240418064510 3 113 0.0 0.0 0.00 0.00 0.00 22 1022.6
20240418063008 3 113 0.0 0.0 0.00 0.00 0.00 24 1022.7
20240418061520 3 113 0.0 1.6 0.00 0.00 0.00 28 1022.6
20240418060003 3 108 0.0 0.0 0.00 0.00 0.00 36 1022.8
20240418054501 3 108 0.0 3.2 0.00 0.00 0.00 40 1022.9
20240418053105 4 125 0.0 8.0 0.00 0.00 0.00 42 1022.8
20240418051601 4 135 0.0 4.8 0.00 0.00 0.00 39 1023.0
20240418050055 4 226 0.0 0.0 0.00 0.00 0.00 39 1023.0
20240418044553 4 226 0.0 0.0 0.00 0.00 0.00 46 1023.0
20240418043054 4 226 0.0 0.0 0.00 0.00 0.00 51 1023.1
20240418041550 4 226 0.0 0.0 0.00 0.00 0.00 53 1023.1
20240418040051 4 226 0.0 0.0 0.00 0.00 0.00 53 1023.2
20240418034546 4 226 0.0 0.0 0.00 0.00 0.00 56 1023.2
20240418033046 5 226 0.0 0.0 0.00 0.00 0.00 57 1023.2
20240418031602 5 226 0.0 0.0 0.00 0.00 0.00 58 1023.0
20240418030045 5 226 0.0 0.0 0.00 0.00 0.00 61 1022.9
20240418024544 5 226 0.0 0.0 0.00 0.00 0.00 61 1022.8
20240418023050 5 226 0.0 0.0 0.00 0.00 0.00 62 1022.8
20240418021543 5 217 0.0 0.0 0.00 0.00 0.00 64 1022.7
20240418020056 5 242 0.0 1.6 0.00 0.00 0.00 65 1022.6
20240418014541 5 243 0.0 0.0 0.00 0.00 0.00 65 1022.6
20240418013041 6 243 0.0 0.0 0.00 0.00 0.00 65 1022.4
20240418011542 6 244 0.0 0.0 0.00 0.00 0.00 65 1022.4
20240418010039 6 244 0.0 1.6 0.00 0.00 0.00 66 1022.0
20240418004550 6 257 0.0 8.0 0.00 0.00 0.00 66 1021.9
20240418003051 6 249 0.0 1.6 0.00 0.00 0.00 65 1021.6
20240418001538 6 236 0.0 6.4 0.00 0.00 0.00 65 1021.3
20240418000037 6 261 0.0 0.0 0.00 0.00 0.00 65 1021.1
20240417234537 6 242 0.0 6.4 0.00 0.00 0.00 64 1020.9
20240417233035 7 244 0.0 8.0 0.00 0.00 0.00 63 1020.8
20240417231535 7 239 0.0 8.0 0.00 0.00 0.00 63 1020.6
20240417230034 8 237 0.0 3.2 0.00 0.00 0.00 63 1020.6
20240417224534 8 246 1.6 4.8 0.00 0.00 0.00 61 1020.4
20240417223033 8 219 3.2 8.0 0.00 0.00 0.00 60 1020.4
20240417221537 8 254 0.0 4.8 0.00 0.00 0.00 59 1020.2
20240417220032 8 257 0.0 12.9 0.00 0.00 0.00 58 1020.3
20240417214538 9 288 1.6 11.3 0.00 0.00 0.00 57 1020.2
20240417213033 10 246 3.2 9.7 0.00 0.00 0.00 55 1020.1
20240417211531 10 224 1.6 11.3 0.00 0.00 0.00 52 1020.1
20240417210033 11 254 0.0 11.3 0.00 0.00 0.00 52 1020.0
20240417204535 11 227 3.2 11.3 0.00 0.00 0.00 51 1020.0
20240417203035 11 223 3.2 11.3 0.00 0.00 0.00 48 1020.0
20240417201529 12 232 0.0 8.0 0.00 0.00 0.00 48 1019.9
20240417200037 12 223 1.6 12.9 0.00 0.00 0.00 47 1019.8
20240417194527 13 268 6.4 20.9 0.00 0.00 0.00 44 1020.1
20240417193025 13 225 4.8 16.1 0.00 0.00 0.00 45 1020.0
20240417191524 13 286 0.0 11.3 0.00 0.00 0.00 45 1020.2
20240417190026 13 271 1.6 14.5 0.00 0.00 0.00 44 1020.3
20240417184520 14 288 1.6 6.4 0.00 0.00 0.00 41 1020.4
20240417183018 14 242 0.0 4.8 0.00 0.00 0.00 40 1020.5
20240417181516 13 128 0.0 3.2 0.00 0.00 0.00 39 1020.6
20240417180010 13 272 0.0 9.7 0.00 0.00 0.00 41 1020.8
20240417174509 13 13 1.6 8.0 0.00 0.00 0.00 39 1021.0
20240417173005 12 226 1.6 4.8 0.00 0.00 0.00 43 1021.2
20240417171503 12 71 0.0 6.4 0.00 0.00 0.00 42 1021.4
20240417170059 12 34 1.6 9.7 0.00 0.00 0.00 44 1021.5
20240417164604 12 219 1.6 9.7 0.00 0.00 0.00 42 1021.6
20240417163057 11 228 0.0 8.0 0.00 0.00 0.00 43 1021.8